This is the latest recevied weather packets stored in our database for station/object G0TQM-11. If no packets are shown the sender has not sent any weather packets the latest 10 day(s).
| Time | Temp. | Humidity | Pressure | Rain* | Wind** | Luminosity | Snow |
|---|---|---|---|---|---|---|---|
| 1788105707 | 27.22° C | 58% | 1000 hPa | - | - | - | - |
| 1788104506 | 25.56° C | 59% | 1000.4 hPa | - | - | - | - |
| 1788103306 | 25.56° C | 57% | 1000.5 hPa | - | - | - | - |
| 1788102106 | 26.11° C | 59% | 1000.7 hPa | - | - | - | - |
| 1788100906 | 25° C | 59% | 1000.8 hPa | - | - | - | - |
| 1788099706 | 22.78° C | 58% | 1001.3 hPa | - | - | - | - |
| 1788098506 | 26.11° C | 48% | 1001.1 hPa | - | - | - | - |
| 1788097306 | 27.22° C | 48% | 1001.5 hPa | - | - | - | - |
| 1788096105 | 26.11° C | 48% | 1001.6 hPa | - | - | - | - |
| 1788094905 | 29.44° C | 42% | 1001.6 hPa | - | - | - | - |
| 1788093705 | 28.89° C | 42% | 1001.7 hPa | - | - | - | - |
| 1788092505 | 28.89° C | 42% | 1002.1 hPa | - | - | - | - |
| 1788091312 | 26.11° C | 49% | 1002.2 hPa | - | - | - | - |
| 1788090105 | 25.56° C | 49% | 1002.4 hPa | - | - | - | - |
| 1788088905 | 26.67° C | 47% | 1002.7 hPa | - | - | - | - |
| 1788087704 | 27.78° C | 47% | 1002.8 hPa | - | - | - | - |
| 1788086504 | 26.67° C | 45% | 1002.7 hPa | - | - | - | - |
| 1788085304 | 28.33° C | 43% | 1003.1 hPa | - | - | - | - |
| 1788084104 | 29.44° C | 46% | 1003.2 hPa | - | - | - | - |
| 1788082904 | 28.33° C | 49% | 1003.2 hPa | - | - | - | - |
| 1788081704 | 27.22° C | 47% | 1003.3 hPa | - | - | - | - |
| 1788080504 | 25.56° C | 52% | 1003.5 hPa | - | - | - | - |
| 1788079303 | 26.11° C | 51% | 1003.5 hPa | - | - | - | - |
| 1788078103 | 24.44° C | 56% | 1003.6 hPa | - | - | - | - |
| 1788076903 | 25° C | 52% | 1003.6 hPa | - | - | - | - |
* Rain since midnight (hover to see other rain measurements)
** Current wind speed in m/s (hover to see current wind gust speed)